TimeCST,TemperatureF,Dew PointF,Humidity,Sea Level PressureIn,VisibilityMPH,Wind Direction,Wind SpeedMPH,Gust SpeedMPH,PrecipitationIn,Events,Conditions,WindDirDegrees,DateUTC
12:00 AM,75,75,99,29.85,6,Calm,Calm,,,,Haze,,2014-03-16 06:00:00
12:00 AM,75.2,75.2,100,29.83,6.2,Calm,Calm,-,N/A,,Partly Cloudy,0,2014-03-16 06:00:00
1:00 AM,73.4,73.4,100,29.83,6.2,Calm,Calm,-,N/A,,Partly Cloudy,0,2014-03-16 07:00:00
2:00 AM,73.4,71.6,94,29.83,6.2,Calm,Calm,-,N/A,,Partly Cloudy,0,2014-03-16 08:00:00
3:00 AM,73,73,99,29.82,6,Calm,Calm,,,,Haze,,2014-03-16 09:00:00
3:00 AM,73.4,73.4,100,29.80,6.2,Calm,Calm,-,N/A,,Partly Cloudy,0,2014-03-16 09:00:00
4:00 AM,73.4,71.6,94,29.77,6.2,Calm,Calm,-,N/A,,Partly Cloudy,0,2014-03-16 10:00:00
5:00 AM,73.4,71.6,94,29.77,6.2,Calm,Calm,-,N/A,,Partly Cloudy,0,2014-03-16 11:00:00
6:00 AM,71,70,97,29.81,6,Calm,Calm,,,,Haze,,2014-03-16 12:00:00
6:00 AM,69.8,69.8,100,29.80,6.2,Calm,Calm,-,N/A,,Partly Cloudy,0,2014-03-16 12:00:00
7:00 AM,73.4,73.4,100,29.83,6.2,Calm,Calm,-,N/A,,Partly Cloudy,0,2014-03-16 13:00:00
8:00 AM,80.6,71.6,74,29.83,6.2,Calm,Calm,-,N/A,,Partly Cloudy,0,2014-03-16 14:00:00
9:00 AM,85,72,57,29.84,6,SSW,9.2,,,,Haze,200,2014-03-16 15:00:00
9:00 AM,86.0,71.6,62,29.86,6.2,SSW,9.2,-,N/A,,Partly Cloudy,200,2014-03-16 15:00:00
10:00 AM,89.6,66.2,46,29.83,6.2,South,12.7,-,N/A,,Partly Cloudy,190,2014-03-16 16:00:00
11:00 AM,93.2,66.2,41,29.83,6.2,South,11.5,-,N/A,,Partly Cloudy,190,2014-03-16 17:00:00
12:00 PM,94,66,30,30.07,6,South,9.2,,,,Haze,190,2014-03-16 18:00:00
12:00 PM,95.0,66.2,39,29.77,6.2,South,9.2,-,N/A,,Partly Cloudy,190,2014-03-16 18:00:00
1:00 PM,96.8,66.2,37,29.74,6.2,ESE,5.8,-,N/A,,Partly Cloudy,110,2014-03-16 19:00:00
2:00 PM,96.8,64.4,34,29.68,6.2,ESE,5.8,-,N/A,,Partly Cloudy,120,2014-03-16 20:00:00
3:00 PM,98,64,23,29.64,6,NE,5.8,,,,Haze,40,2014-03-16 21:00:00
3:00 PM,98.6,64.4,32,29.65,6.2,NE,5.8,-,N/A,,Partly Cloudy,40,2014-03-16 21:00:00
4:00 PM,93.2,77.0,59,29.62,6.2,NNE,12.7,-,N/A,,Partly Cloudy,30,2014-03-16 22:00:00
5:00 PM,89.6,75.2,62,29.62,6.2,North,16.1,-,N/A,,Partly Cloudy,350,2014-03-16 23:00:00
6:00 PM,86.0,71.6,62,29.62,6.2,North,11.5,-,N/A,,Partly Cloudy,350,2014-03-17 00:00:00
7:00 PM,80.6,71.6,74,29.65,6.2,North,4.6,-,N/A,,Partly Cloudy,350,2014-03-17 01:00:00
8:00 PM,78.8,71.6,78,29.65,6.2,NNW,2.3,-,N/A,,Partly Cloudy,340,2014-03-17 02:00:00
9:00 PM,80,72,71,29.67,7,SSE,3.5,,,,Haze,150,2014-03-17 03:00:00
9:00 PM,80.6,71.6,74,29.68,6.2,SSE,3.5,-,N/A,,Partly Cloudy,150,2014-03-17 03:00:00
11:00 PM,75.2,73.4,94,29.71,6.2,Calm,Calm,-,N/A,,Partly Cloudy,0,2014-03-17 05:00:00